Regional Weather Roundup
Issued by NWS

Home | Current Version | Previous Version | Text Only | Print | Product List | Glossary Off
Versions: 1 2 3 4 5 6 7 8 9 10 11 12 13 14 15 16 17 18 19 20 21 22 23 24 25 26 27 28 29 30 31 32 33 34 35 36 37 38 39 40 41 42 43 44 45 46 47 48 49 50

000
ASUS43 KFSD 301210
RWRSD

WEATHER ROUNDUP FOR SOUTH DAKOTA
NATIONAL WEATHER SERVICE SIOUX FALLS SD
700 AM CDT FRI SEP 30 2016

NOTE: "FAIR" INDICATES FEW OR NO CLOUDS BELOW 12,000 FEET WITH NO
SIGNIFICANT WEATHER AND/OR OBSTRUCTIONS TO VISIBILITY.


SDZ001>005-009-010-012>017-301300-
NORTHWEST AND NORTH CENTRAL SOUTH DAKOTA

CITY           SKY/WX    TMP DP  RH WIND       PRES   REMARKS
BUFFALO          N/A     58  45  62 S9        30.02R
FAITH            N/A     52  42  69 SE18      30.10S
MOBRIDGE       CLOUDY    56  45  66 SE17G25   30.17R
$$

SDZ012>016-024>037-041>051-057-063-072>074-301300-
SOUTHWEST AND SOUTH CENTRAL SOUTH DAKOTA

CITY           SKY/WX    TMP DP  RH WIND       PRES   REMARKS
RAPID CTY ARPT CLOUDY    56  43  61 E9        30.10F
PIERRE         MOCLDY    51  44  77 SE12      30.20S
CUSTER         CLOUDY    53  41  63 CALM      30.20F
ELLSWORTH AFB  CLOUDY    59  43  55 S10       30.08S
PHILIP         PTCLDY    49  42  77 SE9       30.15S
PINE RIDGE     PTCLDY    54  42  64 S14G24    30.16F
WINNER         FAIR      51  45  79 S12       30.24S
$$

SDZ004>011-016>023-039-040-301300-
NORTHEAST SOUTH DAKOTA

CITY           SKY/WX    TMP DP  RH WIND       PRES   REMARKS
ABERDEEN       CLOUDY    42  40  92 SE8       30.29S
WATERTOWN      CLEAR     46  43  89 SE5       30.32S
BROOKINGS      CLEAR     38  38 100 NW3       30.33R
SISSETON         N/A     42  41  96 S6        30.33S
$$

SDZ017-020-022-023-036>040-048>070-301300-
SOUTHEAST SOUTH DAKOTA

CITY           SKY/WX    TMP DP  RH WIND       PRES   REMARKS
SIOUX FALLS    CLEAR     42  40  92 CALM      30.33S
HURON          CLEAR     45  44  97 SE7       30.29F
CHAMBERLAIN    CLOUDY    47  46  97 SE6       30.26S
MITCHELL       CLEAR     44  42  93 SE7       30.31S
YANKTON        CLEAR     43  41  93 E6        30.30S
$$

ABBREVIATIONS USED IN REMARKS
   TC - TEMPERATURE IN CELSIUS
  WCI - WIND CHILL INDEX
   HX - HEAT INDEX
  VSB - VISIBILITY





USA.gov is the U.S. government's official web portal to all federal, state and local government web resources and services.